Weather in Bagaevskaya

Russia / Rostov Oblast     47°18′43″N   40°23′00″E
temp.,
°C
wind,
m/s
gust,
m/s
humid.,
%
clouds,
%
prec.,
mm/h
press.,
hPa
HPBL,
m
15 may, sat
sat1500:00+18e3385100 0.0 101126
03:00+17e118783 0.0 101111
06:00+18w34915 0.6 101289
09:00+23nnw347730 0.6 1013508
12:00+26nne22625 0.0 10131089
15:00+28nnw21545 0.0 10121523
18:00+26nw23669 0.0 1012100
21:00+20nw22735 0.4 101311
16 may, sun
sun1600:00+18nnw338111 0.1 101223
03:00+18ne349251 0.1 101170
06:00+17ene3787100 0.0 1011173
09:00+20e5761100 0.0 1011431
12:00+25e794954 0.0 1010867
15:00+26ese71355100 0.0 10091221
18:00+25ene346690 0.0 100792
21:00+20e5126599 0.0 1007245
17 may, mon
mon1700:00+17e515620 0.0 1006295
03:00+16e614595 0.0 1005307
06:00+15e4117322 0.0 1006237
09:00+21ese68585 0.0 1007650
12:00+25sse555413 0.0 10081103
15:00+26sse2355100 0.0 10081017
18:00+24w347590 0.1 1008187
21:00+19wnw3589100 0.8 100995
18 may, tue
tue1800:00+17wsw369584 0.4 1010187
03:00+15w61294100 2.9 1010365
06:00+15w499698 2.4 1011333
09:00+19w468198 2.5 1012810
12:00+22w566266 0.1 10121514
15:00+22wsw5667100 0.8 10121134
18:00+21w47690 0.3 1012373
21:00+16sw4787100 0.3 1013124
19 may, wed
wed1900:00+15sw398998 0.0 1013216
03:00+14sw410937 0.0 1013219
06:00+15ssw389044 0.0 1014259
09:00+20sw57691 0.0 1014751
12:00+23sw465975 0.0 10141355
15:00+24ssw3555100 0.0 10131758
18:00+23sse4772100 0.0 1012278
21:00+19se478197 0.1 1011112